Weather Roundup
Issued by NWS Chicago, IL

Home | Current Version | Previous Version | Text Only | Print | Product List | Glossary Off
Versions: 1 2 3 4 5 6 7 8 9 10 11 12 13 14 15 16 17 18 19 20 21 22 23 24 25 26 27 28 29 30 31 32 33 34 35 36 37 38 39 40 41 42 43 44 45 46 47 48 49 50

000
NZUS59 KLOT 251309
HRRLOT

CHICAGO AREA WEATHER ROUNDUP
NATIONAL WEATHER SERVICE CHICAGO/ROMEOVILLE IL
800 AM CDT SUN JUN 25 2017

NOTE: "FAIR" INDICATES FEW OR NO CLOUDS BELOW 12,000 FEET WITH NO
SIGNIFICANT WEATHER AND/OR OBSTRUCTIONS TO VISIBILITY.

* THESE STATIONS ARE NOT UNDER NWS QUALITY CONTROL. THEY ALSO MAY NOT
  REPORT WEATHER SUCH AS PRECIPITATION OR FOG.

ILZ005-006-012>014-019>023-251400-
NORTHEAST ILLINOIS

CITY           SKY/WX    TMP DP  RH WIND       PRES   REMARKS
OHARE          MOSUNNY   60  49  66 W12       30.10R
MIDWAY         SUNNY     61  48  62 W15G21    30.10R
AURORA         SUNNY     60  52  74 W12       30.13R
LANSING*       MOSUNNY   62  47  58 W13       30.11S
JOLIET*        SUNNY     63  51  64 W9G16     30.13R
WAUKEGAN       SUNNY     60  50  69 VRB6      30.07R
DUPAGE AIRPORT SUNNY     60  52  74 W12       30.10S
WHEELING       SUNNY     60  50  69 W10       30.11R
MORRIS*        MOSUNNY   62  50  65 W14       30.12S
LEWIS AIRPORT* SUNNY     61  49  63 W12       30.12S
NORTHERLY ISL    N/A     61  47  59 W8          N/A
$$

WIZ051-052-058>065-066-070>072-251400-
SOUTHEAST WISCONSIN

CITY           SKY/WX    TMP DP  RH WIND       PRES   REMARKS
MILWAUKEE      MOSUNNY   59  50  72 W13       30.05R
KENOSHA*       SUNNY     59  49  69 W10       30.07R
RACINE*        SUNNY     59  50  72 W13       30.07R
WAUKESHA       SUNNY     55  48  76 W13G18    30.06R
WEST BEND      SUNNY     55  50  82 W9        30.03S
$$

INZ001>003-010>013-019-020-251400-
NORTHWEST INDIANA

CITY           SKY/WX    TMP DP  RH WIND       PRES   REMARKS
GARY*          SUNNY     63  46  55 W9G21     30.11R
MICHIGAN CITY* NOT AVBL
RENSSELAER*    NOT AVBL
VALPARAISO     SUNNY     63  48  58 W15G22    30.11R
$$

LMZ740>746-251400-
SOUTHERN LAKE MICHIGAN

STATION/POSITION TIME  SKY/WX   TEMP WIND        PRES    VSBY
                                AIR  DIR/SP/G
                 (UTC)          (F)  (DEG/KT/KT) (MB)    (MI)
HARRISON CRIB    1230            60  280/ 16/ 18   N/A
BURNHAM HARBOR   1300            61                N/A
CALUMET HARBOR   1248            61  240/  5/ 11 1018.8R
BURNS HARBOR     1240            61  260/ 15/ 18 1019.6R
MICHIGAN CITY    1230            60  250/ 19/ 23   N/A
$$

ABBREVIATIONS USED IN REMARKS
   TC - TEMPERATURE IN CELSIUS
  WCI - WIND CHILL INDEX
   HX - HEAT INDEX
  VSB - VISIBILITY
$$




USA.gov is the U.S. government's official web portal to all federal, state and local government web resources and services.